Year,Month,Day,Hour,Minute,Value (Times are PST for temperature in C)
2017,06,20,00,00,18.40
2017,06,20,00,01,18.40
2017,06,20,00,02,18.40
2017,06,20,00,03,18.40
2017,06,20,00,04,18.40
2017,06,20,00,05,18.40
2017,06,20,00,06,18.40
2017,06,20,00,07,18.40
2017,06,20,00,08,18.40
2017,06,20,00,09,18.40
2017,06,20,00,10,18.40
2017,06,20,00,11,18.40
2017,06,20,00,12,18.40
2017,06,20,00,13,18.40
2017,06,20,00,14,18.40
2017,06,20,00,15,18.40
2017,06,20,00,16,18.40
2017,06,20,00,17,18.40
2017,06,20,00,18,18.30
2017,06,20,00,19,18.30
2017,06,20,00,20,18.20
2017,06,20,00,21,18.20
2017,06,20,00,22,18.10
2017,06,20,00,23,18.10
2017,06,20,00,24,18.10
2017,06,20,00,25,18.10
2017,06,20,00,26,18.10
2017,06,20,00,27,18.00
2017,06,20,00,28,18.00
2017,06,20,00,29,18.00
2017,06,20,00,30,18.00
2017,06,20,00,31,17.90
2017,06,20,00,32,17.90
2017,06,20,00,33,17.90
2017,06,20,00,34,17.90
2017,06,20,00,35,17.90
2017,06,20,00,36,17.90
2017,06,20,00,37,17.90
2017,06,20,00,38,17.90
2017,06,20,00,39,18.00
2017,06,20,00,40,18.00
2017,06,20,00,41,18.00
2017,06,20,00,42,18.10
2017,06,20,00,43,18.10
2017,06,20,00,44,18.10
2017,06,20,00,45,18.10
2017,06,20,00,46,18.10
2017,06,20,00,47,18.10
2017,06,20,00,48,18.10
2017,06,20,00,49,18.10
2017,06,20,00,50,18.10
2017,06,20,00,51,18.10
2017,06,20,00,52,18.00
2017,06,20,00,53,18.00
2017,06,20,00,54,18.00
2017,06,20,00,55,17.90
2017,06,20,00,56,17.90
2017,06,20,00,57,17.90
2017,06,20,00,58,17.90
2017,06,20,00,59,17.80
2017,06,20,01,00,17.80
2017,06,20,01,01,17.80
2017,06,20,01,02,17.80
2017,06,20,01,03,17.80
2017,06,20,01,04,17.70
2017,06,20,01,05,17.70
2017,06,20,01,06,17.70
2017,06,20,01,07,17.70
2017,06,20,01,08,17.70
2017,06,20,01,09,17.60
2017,06,20,01,10,17.60
2017,06,20,01,11,17.60
2017,06,20,01,12,17.60
2017,06,20,01,13,17.50
2017,06,20,01,14,17.50
2017,06,20,01,15,17.50
2017,06,20,01,16,17.50
2017,06,20,01,17,17.50
2017,06,20,01,18,17.40
2017,06,20,01,19,17.40
2017,06,20,01,20,17.40
2017,06,20,01,21,17.30
2017,06,20,01,22,17.30
2017,06,20,01,23,17.30
2017,06,20,01,24,17.30
2017,06,20,01,25,17.30
2017,06,20,01,26,17.30
2017,06,20,01,27,17.30
2017,06,20,01,28,17.30
2017,06,20,01,29,17.30
2017,06,20,01,30,17.30
2017,06,20,01,31,17.30
2017,06,20,01,32,17.30
2017,06,20,01,33,17.30
2017,06,20,01,34,17.30
2017,06,20,01,35,17.30
2017,06,20,01,36,17.30
2017,06,20,01,37,17.30
2017,06,20,01,38,17.30
2017,06,20,01,39,17.30
2017,06,20,01,40,17.30
2017,06,20,01,41,17.30
2017,06,20,01,42,17.30
2017,06,20,01,43,17.30
2017,06,20,01,44,17.30
2017,06,20,01,45,17.30
2017,06,20,01,46,17.30
2017,06,20,01,47,17.30
2017,06,20,01,48,17.30
2017,06,20,01,49,17.30
2017,06,20,01,50,17.30
2017,06,20,01,51,17.30
2017,06,20,01,52,17.30
2017,06,20,01,53,17.30
2017,06,20,01,54,17.30
2017,06,20,01,55,17.20
2017,06,20,01,56,17.20
2017,06,20,01,57,17.20
2017,06,20,01,58,17.20
2017,06,20,01,59,17.20
2017,06,20,02,00,17.20
2017,06,20,02,01,17.20
2017,06,20,02,02,17.20
2017,06,20,02,03,17.20
2017,06,20,02,04,17.20
2017,06,20,02,05,17.20
2017,06,20,02,06,17.10
2017,06,20,02,07,17.10
2017,06,20,02,08,17.10
2017,06,20,02,09,17.10
2017,06,20,02,10,17.10
2017,06,20,02,11,17.10
2017,06,20,02,12,17.10
2017,06,20,02,13,17.10
2017,06,20,02,14,17.10
2017,06,20,02,15,17.10
2017,06,20,02,16,17.10
2017,06,20,02,17,17.10
2017,06,20,02,18,17.10
2017,06,20,02,19,17.10
2017,06,20,02,20,17.10
2017,06,20,02,21,17.10
2017,06,20,02,22,17.10
2017,06,20,02,23,17.10
2017,06,20,02,24,17.20
2017,06,20,02,25,17.20
2017,06,20,02,26,17.20
2017,06,20,02,27,17.30
2017,06,20,02,28,17.30
2017,06,20,02,29,17.30
2017,06,20,02,30,17.30
2017,06,20,02,31,17.30
2017,06,20,02,32,17.30
2017,06,20,02,33,17.30
2017,06,20,02,34,17.30
2017,06,20,02,35,17.30
2017,06,20,02,36,17.30
2017,06,20,02,37,17.30
2017,06,20,02,38,17.30
2017,06,20,02,39,17.30
2017,06,20,02,40,17.30
2017,06,20,02,41,17.30
2017,06,20,02,42,17.20
2017,06,20,02,43,17.20
2017,06,20,02,44,17.20
2017,06,20,02,45,17.20
2017,06,20,02,46,17.10
2017,06,20,02,47,17.10
2017,06,20,02,48,17.10
2017,06,20,02,49,17.10
2017,06,20,02,50,17.10
2017,06,20,02,51,17.10
2017,06,20,02,52,17.10
2017,06,20,02,53,17.10
2017,06,20,02,54,17.00
2017,06,20,02,55,17.00
2017,06,20,02,56,17.00
2017,06,20,02,57,17.00
2017,06,20,02,58,17.00
2017,06,20,02,59,17.00
2017,06,20,03,00,17.00
2017,06,20,03,01,16.90
2017,06,20,03,02,16.90
2017,06,20,03,03,16.90
2017,06,20,03,04,16.90
2017,06,20,03,05,16.90
2017,06,20,03,06,16.90
2017,06,20,03,07,16.90
2017,06,20,03,08,16.90
2017,06,20,03,09,16.90
2017,06,20,03,10,16.90
2017,06,20,03,11,16.80
2017,06,20,03,12,16.80
2017,06,20,03,13,16.80
2017,06,20,03,14,16.80
2017,06,20,03,15,16.80
2017,06,20,03,16,16.80
2017,06,20,03,17,16.80
2017,06,20,03,18,16.80
2017,06,20,03,19,16.80
2017,06,20,03,20,16.80
2017,06,20,03,21,16.80
2017,06,20,03,22,16.80
2017,06,20,03,23,16.80
2017,06,20,03,24,16.80
2017,06,20,03,25,16.80
2017,06,20,03,26,16.80
2017,06,20,03,27,16.80
2017,06,20,03,28,16.80
2017,06,20,03,29,16.80
2017,06,20,03,30,16.80
2017,06,20,03,31,16.90
2017,06,20,03,32,16.90
2017,06,20,03,33,17.00
2017,06,20,03,34,17.00
2017,06,20,03,35,17.10
2017,06,20,03,36,17.10
2017,06,20,03,37,17.20
2017,06,20,03,38,17.20
2017,06,20,03,39,17.20
2017,06,20,03,40,17.30
2017,06,20,03,41,17.30
2017,06,20,03,42,17.30
2017,06,20,03,43,17.40
2017,06,20,03,44,17.40
2017,06,20,03,45,17.40
2017,06,20,03,46,17.40
2017,06,20,03,47,17.40
2017,06,20,03,48,17.50
2017,06,20,03,49,17.50
2017,06,20,03,50,17.50
2017,06,20,03,51,17.50
2017,06,20,03,52,17.50
2017,06,20,03,53,17.50
2017,06,20,03,54,17.50
2017,06,20,03,55,17.50
2017,06,20,03,56,17.50
2017,06,20,03,57,17.60
2017,06,20,03,58,17.60
2017,06,20,03,59,17.60
2017,06,20,04,00,17.60
2017,06,20,04,01,17.60
2017,06,20,04,02,17.60
2017,06,20,04,03,17.60
2017,06,20,04,04,17.50
2017,06,20,04,05,17.50
2017,06,20,04,06,17.50
2017,06,20,04,07,17.50
2017,06,20,04,08,17.50
2017,06,20,04,09,17.50
2017,06,20,04,10,17.50
2017,06,20,04,11,17.50
2017,06,20,04,12,17.50
2017,06,20,04,13,17.50
2017,06,20,04,14,17.50
2017,06,20,04,15,17.50
2017,06,20,04,16,17.50
2017,06,20,04,17,17.50
2017,06,20,04,18,17.50
2017,06,20,04,19,17.50
2017,06,20,04,20,17.50
2017,06,20,04,21,17.50
2017,06,20,04,22,17.50
2017,06,20,04,23,17.50
2017,06,20,04,24,17.50
2017,06,20,04,25,17.50
2017,06,20,04,26,17.50
2017,06,20,04,27,17.50
2017,06,20,04,28,17.50
2017,06,20,04,29,17.50
2017,06,20,04,30,17.50
2017,06,20,04,31,17.50
2017,06,20,04,32,17.50
2017,06,20,04,33,17.50
2017,06,20,04,34,17.50
2017,06,20,04,35,17.50
2017,06,20,04,36,17.50
2017,06,20,04,37,17.50
2017,06,20,04,38,17.50
2017,06,20,04,39,17.50
2017,06,20,04,40,17.50
2017,06,20,04,41,17.40
2017,06,20,04,42,17.40
2017,06,20,04,43,17.40
2017,06,20,04,44,17.40
2017,06,20,04,45,17.40
2017,06,20,04,46,17.40
2017,06,20,04,47,17.40
2017,06,20,04,48,17.40
2017,06,20,04,49,17.40
2017,06,20,04,50,17.30
2017,06,20,04,51,17.30
2017,06,20,04,52,17.30
2017,06,20,04,53,17.30
2017,06,20,04,54,17.30
2017,06,20,04,55,17.30
2017,06,20,04,56,17.30
2017,06,20,04,57,17.30
2017,06,20,04,58,17.30
2017,06,20,04,59,17.30
2017,06,20,05,00,17.30
2017,06,20,05,01,17.20
2017,06,20,05,02,17.20
2017,06,20,05,03,17.20
2017,06,20,05,04,17.20
2017,06,20,05,05,17.20
2017,06,20,05,06,17.20
2017,06,20,05,07,17.30
2017,06,20,05,08,17.30
2017,06,20,05,09,17.30
2017,06,20,05,10,17.30
2017,06,20,05,11,17.30
2017,06,20,05,12,17.30
2017,06,20,05,13,17.30
2017,06,20,05,14,17.30
2017,06,20,05,15,17.30
2017,06,20,05,16,17.30
2017,06,20,05,17,17.30
2017,06,20,05,18,17.30
2017,06,20,05,19,17.30
2017,06,20,05,20,17.30
2017,06,20,05,21,17.30
2017,06,20,05,22,17.30
2017,06,20,05,23,17.20
2017,06,20,05,24,17.30
2017,06,20,05,25,17.30
2017,06,20,05,26,17.20
2017,06,20,05,27,17.20
2017,06,20,05,28,17.20
2017,06,20,05,29,17.20
2017,06,20,05,30,17.20
2017,06,20,05,31,17.20
2017,06,20,05,32,17.20
2017,06,20,05,33,17.20
2017,06,20,05,34,17.20
2017,06,20,05,35,17.20
2017,06,20,05,36,17.20
2017,06,20,05,37,17.20
2017,06,20,05,38,17.20
2017,06,20,05,39,17.20
2017,06,20,05,40,17.20
2017,06,20,05,41,17.20
2017,06,20,05,42,17.20
2017,06,20,05,43,17.20
2017,06,20,05,44,17.20
2017,06,20,05,45,17.20
2017,06,20,05,46,17.20
2017,06,20,05,47,17.20
2017,06,20,05,48,17.20
2017,06,20,05,49,17.20
2017,06,20,05,50,17.20
2017,06,20,05,51,17.20
2017,06,20,05,52,17.20
2017,06,20,05,53,17.20
2017,06,20,05,54,17.20
2017,06,20,05,55,17.20
2017,06,20,05,56,17.20
2017,06,20,05,57,17.20
2017,06,20,05,58,17.20
2017,06,20,05,59,17.20
2017,06,20,06,00,17.20
2017,06,20,06,01,17.20
2017,06,20,06,02,17.20
2017,06,20,06,03,17.10
2017,06,20,06,04,17.10
2017,06,20,06,05,17.10
2017,06,20,06,06,17.10
2017,06,20,06,07,17.10
2017,06,20,06,08,17.10
2017,06,20,06,09,17.10
2017,06,20,06,10,17.10
2017,06,20,06,11,17.10
2017,06,20,06,12,17.10
2017,06,20,06,13,17.10
2017,06,20,06,14,17.10
2017,06,20,06,15,17.10
2017,06,20,06,16,17.10
2017,06,20,06,17,17.10
2017,06,20,06,18,17.10
2017,06,20,06,19,17.00
2017,06,20,06,20,17.00
2017,06,20,06,21,16.90
2017,06,20,06,22,16.90
2017,06,20,06,23,16.90
2017,06,20,06,24,16.90
2017,06,20,06,25,16.80
2017,06,20,06,26,16.80
2017,06,20,06,27,16.80
2017,06,20,06,28,16.80
2017,06,20,06,29,16.70
2017,06,20,06,30,16.70
2017,06,20,06,31,16.70
2017,06,20,06,32,16.70
2017,06,20,06,33,16.60
2017,06,20,06,34,16.60
2017,06,20,06,35,16.60
2017,06,20,06,36,16.60
2017,06,20,06,37,16.60
2017,06,20,06,38,16.60
2017,06,20,06,39,16.60
2017,06,20,06,40,16.60
2017,06,20,06,41,16.60
2017,06,20,06,42,16.60
2017,06,20,06,43,16.50
2017,06,20,06,44,16.40
2017,06,20,06,45,16.40
2017,06,20,06,46,16.40
2017,06,20,06,47,16.40
2017,06,20,06,48,16.30
2017,06,20,06,49,16.30
2017,06,20,06,50,16.30
2017,06,20,06,51,16.20
2017,06,20,06,52,16.20
2017,06,20,06,53,16.20
2017,06,20,06,54,16.20
2017,06,20,06,55,16.10
2017,06,20,06,56,16.10
2017,06,20,06,57,16.10
2017,06,20,06,58,16.10
2017,06,20,06,59,16.10
2017,06,20,07,00,16.10
2017,06,20,07,01,16.10
2017,06,20,07,02,16.10
2017,06,20,07,03,16.10
2017,06,20,07,04,16.10
2017,06,20,07,05,16.10
2017,06,20,07,06,16.10
2017,06,20,07,07,16.10
2017,06,20,07,08,16.00
2017,06,20,07,09,16.00
2017,06,20,07,10,16.00
2017,06,20,07,11,16.00
2017,06,20,07,12,16.00
2017,06,20,07,13,16.00
2017,06,20,07,14,15.90
2017,06,20,07,15,15.90
2017,06,20,07,16,15.90
2017,06,20,07,17,15.90
2017,06,20,07,18,15.90
2017,06,20,07,19,15.90
2017,06,20,07,20,15.90
2017,06,20,07,21,15.90
2017,06,20,07,22,15.90
2017,06,20,07,23,15.90
2017,06,20,07,24,15.90
2017,06,20,07,25,15.90
2017,06,20,07,26,15.90
2017,06,20,07,27,15.90
2017,06,20,07,28,15.90
2017,06,20,07,29,15.90
2017,06,20,07,30,15.90
2017,06,20,07,31,15.90
2017,06,20,07,32,15.90
2017,06,20,07,33,15.90
2017,06,20,07,34,15.80
2017,06,20,07,35,15.80
2017,06,20,07,36,15.80
2017,06,20,07,37,15.80
2017,06,20,07,38,15.80
2017,06,20,07,39,15.80
2017,06,20,07,40,15.80
2017,06,20,07,41,15.80
2017,06,20,07,42,15.80
2017,06,20,07,43,15.80
2017,06,20,07,44,15.70
2017,06,20,07,45,15.70
2017,06,20,07,46,15.70
2017,06,20,07,47,15.70
2017,06,20,07,48,15.70
2017,06,20,07,49,15.70
2017,06,20,07,50,15.70
2017,06,20,07,51,15.70
2017,06,20,07,52,15.70
2017,06,20,07,53,15.70
2017,06,20,07,54,15.70
2017,06,20,07,55,15.80
2017,06,20,07,56,15.80
2017,06,20,07,57,15.80
2017,06,20,07,58,15.80
2017,06,20,07,59,15.80
2017,06,20,08,00,15.80
2017,06,20,08,01,15.80
2017,06,20,08,02,15.80
2017,06,20,08,03,15.80
2017,06,20,08,04,15.90
2017,06,20,08,05,15.90
2017,06,20,08,06,15.80
2017,06,20,08,07,15.80
2017,06,20,08,08,15.80
2017,06,20,08,09,15.80
2017,06,20,08,10,15.80
2017,06,20,08,11,15.80
2017,06,20,08,12,15.80
2017,06,20,08,13,15.80
2017,06,20,08,14,15.80
2017,06,20,08,15,15.80
2017,06,20,08,16,15.80
2017,06,20,08,17,15.80
2017,06,20,08,18,15.80
2017,06,20,08,19,15.80
2017,06,20,08,20,15.90
2017,06,20,08,21,15.90
2017,06,20,08,22,15.90
2017,06,20,08,23,15.90
2017,06,20,08,24,16.00
2017,06,20,08,25,16.00
2017,06,20,08,26,16.00
2017,06,20,08,27,16.10
2017,06,20,08,28,16.10
2017,06,20,08,29,16.10
2017,06,20,08,30,16.10
2017,06,20,08,31,16.10
2017,06,20,08,32,16.10
2017,06,20,08,33,16.10
2017,06,20,08,34,16.20
2017,06,20,08,35,16.20
2017,06,20,08,36,16.20
2017,06,20,08,37,16.20
2017,06,20,08,38,16.20
2017,06,20,08,39,16.30
2017,06,20,08,40,16.30
2017,06,20,08,41,16.30
2017,06,20,08,42,16.40
2017,06,20,08,43,16.40
2017,06,20,08,44,16.40
2017,06,20,08,45,16.50
2017,06,20,08,46,16.50
2017,06,20,08,47,16.60
2017,06,20,08,48,16.60
2017,06,20,08,49,16.70
2017,06,20,08,50,16.80
2017,06,20,08,51,16.80
2017,06,20,08,52,16.90
2017,06,20,08,53,16.90
2017,06,20,08,54,17.00
2017,06,20,08,55,17.10
2017,06,20,08,56,17.10
2017,06,20,08,57,17.20
2017,06,20,08,58,17.10
2017,06,20,08,59,17.10
2017,06,20,09,00,17.10
2017,06,20,09,01,17.10
2017,06,20,09,02,17.10
2017,06,20,09,03,17.10
2017,06,20,09,04,17.10
2017,06,20,09,05,17.20
2017,06,20,09,06,17.20
2017,06,20,09,07,17.30
2017,06,20,09,08,17.30
2017,06,20,09,09,17.40
2017,06,20,09,10,17.50
2017,06,20,09,11,17.60
2017,06,20,09,12,17.60
2017,06,20,09,13,17.70
2017,06,20,09,14,17.70
2017,06,20,09,15,17.70
2017,06,20,09,16,17.70
2017,06,20,09,17,17.70
2017,06,20,09,18,17.70
2017,06,20,09,19,17.70
2017,06,20,09,20,17.70
2017,06,20,09,21,17.70
2017,06,20,09,22,17.80
2017,06,20,09,23,17.80
2017,06,20,09,24,17.90
2017,06,20,09,25,17.90
2017,06,20,09,26,17.90
2017,06,20,09,27,17.90
2017,06,20,09,28,17.90
2017,06,20,09,29,17.90
2017,06,20,09,30,17.80
2017,06,20,09,31,17.80
2017,06,20,09,32,17.80
2017,06,20,09,33,17.90
2017,06,20,09,34,17.90
2017,06,20,09,35,17.90
2017,06,20,09,36,17.90
2017,06,20,09,37,17.90
2017,06,20,09,38,17.90
2017,06,20,09,39,17.90
2017,06,20,09,40,17.90
2017,06,20,09,41,17.90
2017,06,20,09,42,17.90
2017,06,20,09,43,17.90
2017,06,20,09,44,17.90
2017,06,20,09,45,17.90
2017,06,20,09,46,17.90
2017,06,20,09,47,17.90
2017,06,20,09,48,17.80
2017,06,20,09,49,17.80
2017,06,20,09,50,17.80
2017,06,20,09,51,17.70
2017,06,20,09,52,17.70
2017,06,20,09,53,17.70
2017,06,20,09,54,17.70
2017,06,20,09,55,17.80
2017,06,20,09,56,17.80
2017,06,20,09,57,17.80
2017,06,20,09,58,17.80
2017,06,20,09,59,17.80
2017,06,20,10,00,17.80
2017,06,20,10,01,17.80
2017,06,20,10,02,17.80
2017,06,20,10,03,17.80
2017,06,20,10,04,17.80
2017,06,20,10,05,17.80
2017,06,20,10,06,17.80
2017,06,20,10,07,17.80
2017,06,20,10,08,17.90
2017,06,20,10,09,17.90
2017,06,20,10,10,17.90
2017,06,20,10,11,17.80
2017,06,20,10,12,17.80
2017,06,20,10,13,17.80
2017,06,20,10,14,17.80
2017,06,20,10,15,17.80
2017,06,20,10,16,17.90
2017,06,20,10,17,17.90
2017,06,20,10,18,18.00
2017,06,20,10,19,18.10
2017,06,20,10,20,18.20
2017,06,20,10,21,18.20
2017,06,20,10,22,18.20
2017,06,20,10,23,18.20
2017,06,20,10,24,18.30
2017,06,20,10,25,18.20
2017,06,20,10,26,18.20
2017,06,20,10,27,18.20
2017,06,20,10,28,18.20
2017,06,20,10,29,18.30
2017,06,20,10,30,18.40
2017,06,20,10,31,18.40
2017,06,20,10,32,18.40
2017,06,20,10,33,18.40
2017,06,20,10,34,18.40
2017,06,20,10,35,18.30
2017,06,20,10,36,18.30
2017,06,20,10,37,18.30
2017,06,20,10,38,18.30
2017,06,20,10,39,18.30
2017,06,20,10,40,18.40
2017,06,20,10,41,18.40
2017,06,20,10,42,18.40
2017,06,20,10,43,18.40
2017,06,20,10,44,18.40
2017,06,20,10,45,18.40
2017,06,20,10,46,18.30
2017,06,20,10,47,18.30
2017,06,20,10,48,18.30
2017,06,20,10,49,18.30
2017,06,20,10,50,18.30
2017,06,20,10,51,18.30
2017,06,20,10,52,18.20
2017,06,20,10,53,18.20
2017,06,20,10,54,18.20
2017,06,20,10,55,18.20
2017,06,20,10,56,18.30
2017,06,20,10,57,18.30
2017,06,20,10,58,18.30
2017,06,20,10,59,18.30
2017,06,20,11,00,18.30
2017,06,20,11,01,18.30
2017,06,20,11,02,18.30
2017,06,20,11,03,18.30
2017,06,20,11,04,18.40
2017,06,20,11,05,18.50
2017,06,20,11,06,18.50
2017,06,20,11,07,18.50
2017,06,20,11,08,18.60
2017,06,20,11,09,18.50
2017,06,20,11,10,18.50
2017,06,20,11,11,18.50
2017,06,20,11,12,18.50
2017,06,20,11,13,18.50
2017,06,20,11,14,18.50
2017,06,20,11,15,18.50
2017,06,20,11,16,18.50
2017,06,20,11,17,18.50
2017,06,20,11,18,18.60
2017,06,20,11,19,18.60
2017,06,20,11,20,18.60
2017,06,20,11,21,18.70
2017,06,20,11,22,18.70
2017,06,20,11,23,18.80
2017,06,20,11,24,18.80
2017,06,20,11,25,18.80
2017,06,20,11,26,18.70
2017,06,20,11,27,18.60
2017,06,20,11,28,18.60
2017,06,20,11,29,18.60
2017,06,20,11,30,18.60
2017,06,20,11,31,18.70
2017,06,20,11,32,18.70
2017,06,20,11,33,18.70
2017,06,20,11,34,18.70
2017,06,20,11,35,18.70
2017,06,20,11,36,18.70
2017,06,20,11,37,18.70
2017,06,20,11,38,18.70
2017,06,20,11,39,18.70
2017,06,20,11,40,18.60
2017,06,20,11,41,18.60
2017,06,20,11,42,18.60
2017,06,20,11,43,18.60
2017,06,20,11,44,18.60
2017,06,20,11,45,18.60
2017,06,20,11,46,18.60
2017,06,20,11,47,18.60
2017,06,20,11,48,18.70
2017,06,20,11,49,18.70
2017,06,20,11,50,18.70
2017,06,20,11,51,18.70
2017,06,20,11,52,18.80
2017,06,20,11,53,18.90
2017,06,20,11,54,19.00
2017,06,20,11,55,19.00
2017,06,20,11,56,19.10
2017,06,20,11,57,19.10
2017,06,20,11,58,19.00
2017,06,20,11,59,19.00
2017,06,20,12,00,19.00
2017,06,20,12,01,18.90
2017,06,20,12,02,18.90
2017,06,20,12,03,19.00
2017,06,20,12,04,19.00
2017,06,20,12,05,19.10
2017,06,20,12,06,19.10
2017,06,20,12,07,19.20
2017,06,20,12,08,19.20
2017,06,20,12,09,19.20
2017,06,20,12,10,19.20
2017,06,20,12,11,19.20
2017,06,20,12,12,19.20
2017,06,20,12,13,19.30
2017,06,20,12,14,19.30
2017,06,20,12,15,19.40
2017,06,20,12,16,19.40
2017,06,20,12,17,19.50
2017,06,20,12,18,19.40
2017,06,20,12,19,19.40
2017,06,20,12,20,19.30
2017,06,20,12,21,19.30
2017,06,20,12,22,19.30
2017,06,20,12,23,19.30
2017,06,20,12,24,19.20
2017,06,20,12,25,19.20
2017,06,20,12,26,19.30
2017,06,20,12,27,19.30
2017,06,20,12,28,19.40
2017,06,20,12,29,19.50
2017,06,20,12,30,19.50
2017,06,20,12,31,19.50
2017,06,20,12,32,19.50
2017,06,20,12,33,19.40
2017,06,20,12,34,19.40
2017,06,20,12,35,19.50
2017,06,20,12,36,19.60
2017,06,20,12,37,19.80
2017,06,20,12,38,20.00
2017,06,20,12,39,20.10
2017,06,20,12,40,20.30
2017,06,20,12,41,20.30
2017,06,20,12,42,20.40
2017,06,20,12,43,20.30
2017,06,20,12,44,20.20
2017,06,20,12,45,20.20
2017,06,20,12,46,20.30
2017,06,20,12,47,20.30
2017,06,20,12,48,20.30
2017,06,20,12,49,20.40
2017,06,20,12,50,20.50
2017,06,20,12,51,20.50
2017,06,20,12,52,20.60
2017,06,20,12,53,20.50
2017,06,20,12,54,20.50
2017,06,20,12,55,20.50
2017,06,20,12,56,20.40
2017,06,20,12,57,20.40
2017,06,20,12,58,20.50
2017,06,20,12,59,20.60
2017,06,20,13,00,20.70
2017,06,20,13,01,20.70
2017,06,20,13,02,20.60
2017,06,20,13,03,20.60
2017,06,20,13,04,20.60
2017,06,20,13,05,20.60
2017,06,20,13,06,20.50
2017,06,20,13,07,20.40
2017,06,20,13,08,20.40
2017,06,20,13,09,20.40
2017,06,20,13,10,20.30
2017,06,20,13,11,20.40
2017,06,20,13,12,20.30
2017,06,20,13,13,20.30
2017,06,20,13,14,20.30
2017,06,20,13,15,20.40
2017,06,20,13,16,20.50
2017,06,20,13,17,20.60
2017,06,20,13,18,20.60
2017,06,20,13,19,20.60
2017,06,20,13,20,20.50
2017,06,20,13,21,20.30
2017,06,20,13,22,20.20
2017,06,20,13,23,20.20
2017,06,20,13,24,20.20
2017,06,20,13,25,20.20
2017,06,20,13,26,20.20
2017,06,20,13,27,20.30
2017,06,20,13,28,20.40
2017,06,20,13,29,20.60
2017,06,20,13,30,20.60
2017,06,20,13,31,20.70
2017,06,20,13,32,20.70
2017,06,20,13,33,20.70
2017,06,20,13,34,20.70
2017,06,20,13,35,20.80
2017,06,20,13,36,20.80
2017,06,20,13,37,20.80
2017,06,20,13,38,20.80
2017,06,20,13,39,20.90
2017,06,20,13,40,20.90
2017,06,20,13,41,20.90
2017,06,20,13,42,20.80
2017,06,20,13,43,20.80
2017,06,20,13,44,20.70
2017,06,20,13,45,20.70
2017,06,20,13,46,20.70
2017,06,20,13,47,20.70
2017,06,20,13,48,20.70
2017,06,20,13,49,20.70
2017,06,20,13,50,20.60
2017,06,20,13,51,20.60
2017,06,20,13,52,20.70
2017,06,20,13,53,20.80
2017,06,20,13,54,20.80
2017,06,20,13,55,20.70
2017,06,20,13,56,20.70
2017,06,20,13,57,20.60
2017,06,20,13,58,20.70
2017,06,20,13,59,20.70
2017,06,20,14,00,20.80
2017,06,20,14,01,20.90
2017,06,20,14,02,20.90
2017,06,20,14,03,20.90
2017,06,20,14,04,20.90
2017,06,20,14,05,20.80
2017,06,20,14,06,20.70
2017,06,20,14,07,20.70
2017,06,20,14,08,20.70
2017,06,20,14,09,20.80
2017,06,20,14,10,20.70
2017,06,20,14,11,20.80
2017,06,20,14,12,20.80
2017,06,20,14,13,20.90
2017,06,20,14,14,20.90
2017,06,20,14,15,20.90
2017,06,20,14,16,20.90
2017,06,20,14,17,21.00
2017,06,20,14,18,21.00
2017,06,20,14,19,21.00
2017,06,20,14,20,21.00
2017,06,20,14,21,21.00
2017,06,20,14,22,20.90
2017,06,20,14,23,20.80
2017,06,20,14,24,20.80
2017,06,20,14,25,20.80
2017,06,20,14,26,20.90
2017,06,20,14,27,20.90
2017,06,20,14,28,20.80
2017,06,20,14,29,20.80
2017,06,20,14,30,20.70
2017,06,20,14,31,20.70
2017,06,20,14,32,20.70
2017,06,20,14,33,20.80
2017,06,20,14,34,20.90
2017,06,20,14,35,21.00
2017,06,20,14,36,21.10
2017,06,20,14,37,21.20
2017,06,20,14,38,21.30
2017,06,20,14,39,21.30
2017,06,20,14,40,21.30
2017,06,20,14,41,21.30
2017,06,20,14,42,21.20
2017,06,20,14,43,21.20
2017,06,20,14,44,21.20
2017,06,20,14,45,21.20
2017,06,20,14,46,21.30
2017,06,20,14,47,21.30
2017,06,20,14,48,21.30
2017,06,20,14,49,21.30
2017,06,20,14,50,21.20
2017,06,20,14,51,21.20
2017,06,20,14,52,21.10
2017,06,20,14,53,21.10
2017,06,20,14,54,21.10
2017,06,20,14,55,21.00
2017,06,20,14,56,21.10
2017,06,20,14,57,21.00
2017,06,20,14,58,20.90
2017,06,20,14,59,20.90
2017,06,20,15,00,20.90
2017,06,20,15,01,20.80
2017,06,20,15,02,20.80
2017,06,20,15,03,20.80
2017,06,20,15,04,20.80
2017,06,20,15,05,20.90
2017,06,20,15,06,20.90
2017,06,20,15,07,20.90
2017,06,20,15,08,20.90
2017,06,20,15,09,20.90
2017,06,20,15,10,20.90
2017,06,20,15,11,20.90
2017,06,20,15,12,20.90
2017,06,20,15,13,20.80
2017,06,20,15,14,20.80
2017,06,20,15,15,20.80
2017,06,20,15,16,20.80
2017,06,20,15,17,20.80
2017,06,20,15,18,20.90
2017,06,20,15,19,21.00
2017,06,20,15,20,21.10
2017,06,20,15,21,21.10
2017,06,20,15,22,21.20
2017,06,20,15,23,21.20
2017,06,20,15,24,21.20
2017,06,20,15,25,21.10
2017,06,20,15,26,21.10
2017,06,20,15,27,21.10
2017,06,20,15,28,21.20
2017,06,20,15,29,21.30
2017,06,20,15,30,21.40
2017,06,20,15,31,21.30
2017,06,20,15,32,21.30
2017,06,20,15,33,21.30
2017,06,20,15,34,21.40
2017,06,20,15,35,21.50
2017,06,20,15,36,21.60
2017,06,20,15,37,21.70
2017,06,20,15,38,21.80
2017,06,20,15,39,21.80
2017,06,20,15,40,21.80
2017,06,20,15,41,21.80
2017,06,20,15,42,21.80
2017,06,20,15,43,21.70
2017,06,20,15,44,21.70
2017,06,20,15,45,21.70
2017,06,20,15,46,21.70
2017,06,20,15,47,21.70
2017,06,20,15,48,21.60
2017,06,20,15,49,21.50
2017,06,20,15,50,21.40
2017,06,20,15,51,21.40
2017,06,20,15,52,21.40
2017,06,20,15,53,21.40
2017,06,20,15,54,21.50
2017,06,20,15,55,21.60
2017,06,20,15,56,21.70
2017,06,20,15,57,21.80
2017,06,20,15,58,21.90
2017,06,20,15,59,22.00
2017,06,20,16,00,22.10
2017,06,20,16,01,22.10
2017,06,20,16,02,22.10
2017,06,20,16,03,22.10
2017,06,20,16,04,22.20
2017,06,20,16,05,22.20
2017,06,20,16,06,22.20
2017,06,20,16,07,22.20
2017,06,20,16,08,22.20
2017,06,20,16,09,22.20
2017,06,20,16,10,22.20
2017,06,20,16,11,22.20
2017,06,20,16,12,22.20
2017,06,20,16,13,22.20
2017,06,20,16,14,22.20
2017,06,20,16,15,22.30
2017,06,20,16,16,22.20
2017,06,20,16,17,22.20
2017,06,20,16,18,22.10
2017,06,20,16,19,22.10
2017,06,20,16,20,22.10
2017,06,20,16,21,22.10
2017,06,20,16,22,22.10
2017,06,20,16,23,22.00
2017,06,20,16,24,21.90
2017,06,20,16,25,21.80
2017,06,20,16,26,21.80
2017,06,20,16,27,21.80
2017,06,20,16,28,21.80
2017,06,20,16,29,21.80
2017,06,20,16,30,21.80
2017,06,20,16,31,21.90
2017,06,20,16,32,21.90
2017,06,20,16,33,22.00
2017,06,20,16,34,22.00
2017,06,20,16,35,21.90
2017,06,20,16,36,21.90
2017,06,20,16,37,21.80
2017,06,20,16,38,21.80
2017,06,20,16,39,21.70
2017,06,20,16,40,21.70
2017,06,20,16,41,21.70
2017,06,20,16,42,21.70
2017,06,20,16,43,21.70
2017,06,20,16,44,21.70
2017,06,20,16,45,21.70
2017,06,20,16,46,21.70
2017,06,20,16,47,21.70
2017,06,20,16,48,21.70
2017,06,20,16,49,21.70
2017,06,20,16,50,21.70
2017,06,20,16,51,21.60
2017,06,20,16,52,21.50
2017,06,20,16,53,21.50
2017,06,20,16,54,21.40
2017,06,20,16,55,21.40
2017,06,20,16,56,21.50
2017,06,20,16,57,21.60
2017,06,20,16,58,21.60
2017,06,20,16,59,21.50
2017,06,20,17,00,21.50
2017,06,20,17,01,21.30
2017,06,20,17,02,21.30
2017,06,20,17,03,21.30
2017,06,20,17,04,21.20
2017,06,20,17,05,21.20
2017,06,20,17,06,21.20
2017,06,20,17,07,21.20
2017,06,20,17,08,21.20
2017,06,20,17,09,21.30
2017,06,20,17,10,21.40
2017,06,20,17,11,21.50
2017,06,20,17,12,21.50
2017,06,20,17,13,21.40
2017,06,20,17,14,21.40
2017,06,20,17,15,21.20
2017,06,20,17,16,21.10
2017,06,20,17,17,20.90
2017,06,20,17,18,20.80
2017,06,20,17,19,20.80